User: anonymous   Login
Location: Unspecified
(0.0000°N, 0.0000°E)
Time: 08:56:57
(UTC+00:00)
Language:

WGS F4 (USA 233) - Orbit

View from above orbital plane
View from above orbital plane
View from above satellite
View from above satellite

Ground track
Ground track

The orbit data is extracted from the following two-line orbital elements,

1 38070U 12003A   19022.87656969 -.00000224  00000-0  00000+0 0  9992
2 38070   0.0168  59.9606 0000693 259.5043 206.3955  1.00270183 25623
Epoch (UTC): 22 January 2019 21:02:15
Eccentricity: 0.0000693
inclination: 0.0168°
perigee height: 35784 km
apogee height: 35789 km
right ascension of ascending node: 59.9606°
argument of perigee: 259.5043°
revolutions per day: 1.00270183
mean anomaly at epoch: 206.3955°
orbit number at epoch: 2562

The dashed part of the orbit path shows where the satellite is in the earth's shadow,  

DLR